Location: Comstock Ranch
(38.0499°N, 120.2627°W)
Time: 21:22:18
(UTC+00:00)

Cosmos 2237 - Pass Details

Date: 08 September 2024
Orbit: 848 x 853 km, 70.8° (Epoch: 12 October)

Event Time Altitude Azimuth Distance (km) Brightness Sun altitude
Rises 12:01:46 0° 332° (NNW) 3,417 7.3 -18.9°
Reaches altitude 10° 12:04:16 10° 329° (NNW) 2,478 6.5 -18.5°
Maximum altitude 12:09:48 56° 252° (WSW) 1,000 4.2 -17.5°
Drops below altitude 10° 12:15:19 10° 175° (S) 2,462 6.5 -16.5°
Sets 12:17:48 0° 171° (S) 3,393 7.2 -16.0°
